Location: Sungai Laei
(2.6000°N, 113.7167°E)
Time: 07:04:37
(UTC+00:00)

Envisat - Visible Passes

Search period start: 06 October 2022 00:00
Search period end: 16 October 2022 00:00
Orbit: 764 x 765 km, 98.2° (Epoch: 05 October)

Date Brightness Start Highest point End Pass type
(mag) Time Alt. Az. Time Alt. Az. Time Alt. Az.
06 Oct 3.0 20:41:37 10° N 20:46:32 52° WNW 20:51:27 10° SSW visible
07 Oct 3.6 20:04:45 10° NNE 20:09:41 53° ESE 20:14:37 10° S visible
08 Oct 5.4 19:29:21 10° ENE 19:32:49 19° ESE 19:36:17 10° SE visible
08 Oct 3.9 21:07:25 10° NNW 21:11:33 25° WNW 21:15:40 10° SW visible
09 Oct 2.8 20:29:39 10° N 20:34:42 74° WNW 20:39:46 10° SSW visible
10 Oct 4.3 19:53:09 10° NE 19:57:50 38° ESE 20:02:31 10° S visible
10 Oct 4.7 21:34:35 10° NW 21:36:32 12° WNW 21:38:28 10° W visible
11 Oct 5.8 19:18:38 10° ENE 19:20:59 13° ESE 19:23:20 10° SE visible
11 Oct 3.5 20:55:08 10° NNW 20:59:43 35° WNW 21:04:18 10° SW visible
12 Oct 3.0 20:17:48 10° NNE 20:22:51 80° ESE 20:27:56 10° S visible
13 Oct 4.8 19:41:44 10° NE 19:45:59 27° ESE 19:50:15 10° SSE visible
13 Oct 4.3 21:21:28 10° NW 21:24:42 17° WNW 21:27:57 10° WSW visible
14 Oct 3.1 20:43:00 10° N 20:47:52 49° WNW 20:52:45 10° SSW visible
15 Oct 3.5 20:06:03 10° NNE 20:11:00 57° ESE 20:15:59 10° S visible
